When you browse on this site, cookies collect data to enhance your experience and personalize the content and advertising you see.
Visit our Privacy Policy to learn more. By continuing to use the site, you agree to this use of cookies and data.
  • Em Portugal
  • Lista de países
  • Para 7 dias
  • Temperatura da água
  • Mapa do tempo
  • Widgets de tempo
  • user-avatar
    Iniciar Sessão

    Previsão horária em Soelden

    Hoje, 3 Junho, Quarta-feira

    Tempo Temperatura Precipitação Vento Pressão Humidade
    00:00 +3°C° 0 mm 1 m/s 579 mmHg 82%
    01:00 +1°C° 0 mm 2 m/s 579 mmHg 81%
    02:00 +1°C° 0 mm 2 m/s 579 mmHg 80%
    03:00 +2°C° 0 mm 1 m/s 578 mmHg 79%
    04:00 +2°C° 0 mm 1 m/s 578 mmHg 78%
    05:00 +4°C° 0 mm 1 m/s 579 mmHg 74%
    06:00 +5°C° 0 mm 1 m/s 579 mmHg 70%
    07:00 +6°C° 0 mm 0 m/s 580 mmHg 66%
    08:00 +8°C° 0 mm 0 m/s 581 mmHg 59%
    09:00 +10°C° 0 mm 1 m/s 581 mmHg 52%
    10:00 +12°C° 0 mm 1 m/s 582 mmHg 45%
    11:00 +12°C° 0.1 mm 1 m/s 581 mmHg 44%
    12:00 +13°C° 0.1 mm 2 m/s 581 mmHg 43%
    13:00 +13°C° 0.1 mm 2 m/s 581 mmHg 42%
    14:00 +13°C° 0.4 mm 2 m/s 581 mmHg 49%
    15:00 +12°C° 0.4 mm 2 m/s 580 mmHg 55%
    16:00 +12°C° 0.4 mm 2 m/s 579 mmHg 62%
    17:00 +9°C° 0.9 mm 2 m/s 579 mmHg 70%
    18:00 +9°C° 0.9 mm 1 m/s 578 mmHg 79%
    19:00 +8°C° 0.9 mm 1 m/s 577 mmHg 87%
    20:00 +7°C° 0.3 mm 1 m/s 577 mmHg 89%
    21:00 +5°C° 0.3 mm 1 m/s 576 mmHg 90%
    22:00 +4°C° 0.3 mm 1 m/s 576 mmHg 92%
    23:00 +4°C° 0 mm 1 m/s 575 mmHg 93%

    Amanhã, 4 Junho, Quinta-feira

    Tempo Temperatura Precipitação Vento Pressão Humidade
    00:00 +4°C° 0 mm 1 m/s 575 mmHg 93%
    01:00 +3°C° 0 mm 1 m/s 575 mmHg 94%
    02:00 +4°C° 0 mm 1 m/s 574 mmHg 95%
    03:00 +4°C° 0 mm 1 m/s 574 mmHg 96%
    04:00 +4°C° 0 mm 1 m/s 574 mmHg 96%
    05:00 +4°C° 0.3 mm 1 m/s 574 mmHg 96%
    06:00 +4°C° 0.3 mm 1 m/s 574 mmHg 97%
    07:00 +5°C° 0.3 mm 1 m/s 574 mmHg 97%
    08:00 +5°C° 0.6 mm 1 m/s 574 mmHg 97%
    09:00 +5°C° 0.6 mm 1 m/s 574 mmHg 96%
    10:00 +5°C° 0.6 mm 2 m/s 574 mmHg 96%
    11:00 +5°C° 0.9 mm 2 m/s 574 mmHg 96%
    12:00 +5°C° 0.9 mm 2 m/s 574 mmHg 96%
    13:00 +5°C° 0.9 mm 2 m/s 573 mmHg 96%
    14:00 +4°C° 1.4 mm 2 m/s 573 mmHg 97%
    15:00 +4°C° 1.4 mm 2 m/s 572 mmHg 97%
    16:00 +3°C° 1.4 mm 2 m/s 572 mmHg 98%
    17:00 +3°C° 1.6 mm 2 m/s 572 mmHg 98%
    18:00 +4°C° 1.6 mm 1 m/s 571 mmHg 98%
    19:00 +4°C° 1.6 mm 1 m/s 571 mmHg 99%
    20:00 +4°C° 2.7 mm 1 m/s 571 mmHg 99%
    21:00 +3°C° 2.7 mm 1 m/s 571 mmHg 99%
    22:00 +2°C° 2.7 mm 0 m/s 571 mmHg 99%
    23:00 +3°C° 4.8 mm 1 m/s 570 mmHg 98%

    Depois de amanhã, 5 Junho, Sexta-feira

    Tempo Temperatura Precipitação Vento Pressão Humidade
    00:00 +1°C° 4.8 mm 2 m/s 570 mmHg 98%
    01:00 +1°C° 4.8 mm 2 m/s 569 mmHg 98%
    02:00 -1°C° 3.4 mm 2 m/s 569 mmHg 98%
    03:00 -1°C° 3.4 mm 2 m/s 569 mmHg 98%
    04:00 +1°C° 3.4 mm 1 m/s 569 mmHg 98%
    05:00 +1°C° 0.5 mm 1 m/s 569 mmHg 97%
    06:00 +2°C° 0.5 mm 1 m/s 570 mmHg 97%
    07:00 +2°C° 0.5 mm 1 m/s 570 mmHg 97%
    08:00 +3°C° 0.5 mm 1 m/s 571 mmHg 96%
    09:00 +3°C° 0.5 mm 1 m/s 571 mmHg 94%
    10:00 +4°C° 0.5 mm 1 m/s 572 mmHg 93%
    11:00 +5°C° 0.3 mm 1 m/s 572 mmHg 90%
    12:00 +6°C° 0.3 mm 1 m/s 573 mmHg 87%
    13:00 +6°C° 0.3 mm 1 m/s 573 mmHg 84%
    14:00 +7°C° 0.4 mm 1 m/s 573 mmHg 82%
    15:00 +7°C° 0.4 mm 1 m/s 574 mmHg 80%
    16:00 +7°C° 0.4 mm 1 m/s 574 mmHg 78%
    17:00 +6°C° 0.2 mm 1 m/s 574 mmHg 81%
    18:00 +6°C° 0.2 mm 1 m/s 574 mmHg 84%
    19:00 +5°C° 0.2 mm 1 m/s 574 mmHg 87%
    20:00 +3°C° 0 mm 1 m/s 573 mmHg 87%
    21:00 +2°C° 0 mm 1 m/s 573 mmHg 88%
    22:00 0°C° 0 mm 1 m/s 573 mmHg 88%
    23:00 0°C° 0 mm 1 m/s 573 mmHg 88%

    6 Junho, Sábado

    Tempo Temperatura Precipitação Vento Pressão Humidade
    00:00 0°C° 0 mm 1 m/s 573 mmHg 88%
    01:00 0°C° 0 mm 1 m/s 573 mmHg 88%
    02:00 +1°C° 0 mm 1 m/s 574 mmHg 88%
    03:00 +1°C° 0 mm 1 m/s 574 mmHg 88%
    04:00 +1°C° 0 mm 1 m/s 574 mmHg 88%
    05:00 +2°C° 0 mm 1 m/s 575 mmHg 88%
    06:00 +3°C° 0 mm 1 m/s 575 mmHg 88%
    07:00 +4°C° 0 mm 1 m/s 576 mmHg 88%
    08:00 +5°C° 0.1 mm 1 m/s 577 mmHg 87%
    09:00 +6°C° 0.1 mm 1 m/s 577 mmHg 85%
    10:00 +6°C° 0.1 mm 2 m/s 578 mmHg 84%
    11:00 +6°C° 0.3 mm 2 m/s 578 mmHg 84%
    12:00 +7°C° 0.3 mm 2 m/s 578 mmHg 85%
    13:00 +7°C° 0.3 mm 2 m/s 578 mmHg 85%
    14:00 +7°C° 0.5 mm 2 m/s 578 mmHg 87%
    15:00 +7°C° 0.5 mm 2 m/s 578 mmHg 90%
    16:00 +7°C° 0.5 mm 2 m/s 578 mmHg 92%
    17:00 +6°C° 0.5 mm 2 m/s 578 mmHg 93%
    18:00 +6°C° 0.5 mm 2 m/s 578 mmHg 95%
    19:00 +6°C° 0.5 mm 1 m/s 577 mmHg 96%
    20:00 +5°C° 0.2 mm 1 m/s 577 mmHg 96%
    21:00 +5°C° 0.2 mm 1 m/s 577 mmHg 97%
    22:00 +4°C° 0.2 mm 1 m/s 577 mmHg 97%
    23:00 +4°C° 0.5 mm 1 m/s 577 mmHg 97%

    7 Junho, Domingo

    Tempo Temperatura Precipitação Vento Pressão Humidade
    00:00 +4°C° 0.5 mm 1 m/s 577 mmHg 98%
    01:00 +4°C° 0.5 mm 1 m/s 577 mmHg 99%
    02:00 +4°C° 0.8 mm 1 m/s 577 mmHg 99%
    03:00 +4°C° 0.8 mm 1 m/s 577 mmHg 99%
    04:00 +3°C° 0.8 mm 0 m/s 577 mmHg 99%
    05:00 +3°C° 1.4 mm 0 m/s 577 mmHg 98%
    06:00 +5°C° 1.4 mm 1 m/s 577 mmHg 98%
    07:00 +5°C° 1.4 mm 1 m/s 578 mmHg 98%
    08:00 +5°C° 0.6 mm 1 m/s 578 mmHg 98%
    09:00 +5°C° 0.6 mm 1 m/s 578 mmHg 97%
    10:00 +6°C° 0.6 mm 1 m/s 579 mmHg 97%
    11:00 +6°C° 0.7 mm 1 m/s 579 mmHg 96%
    12:00 +7°C° 0.7 mm 1 m/s 579 mmHg 95%
    13:00 +7°C° 0.7 mm 1 m/s 580 mmHg 94%
    14:00 +7°C° 0.9 mm 1 m/s 580 mmHg 94%
    15:00 +7°C° 0.9 mm 1 m/s 580 mmHg 94%
    16:00 +7°C° 0.9 mm 1 m/s 580 mmHg 94%
    17:00 +7°C° 1.2 mm 1 m/s 580 mmHg 95%
    18:00 +6°C° 1.2 mm 1 m/s 579 mmHg 96%
    19:00 +6°C° 1.2 mm 1 m/s 579 mmHg 97%
    20:00 +5°C° 1.4 mm 1 m/s 579 mmHg 97%
    21:00 +4°C° 1.4 mm 1 m/s 579 mmHg 97%
    22:00 +4°C° 1.4 mm 1 m/s 579 mmHg 97%
    23:00 +3°C° 0.9 mm 1 m/s 579 mmHg 97%

    8 Junho, Segunda-feira

    Tempo Temperatura Precipitação Vento Pressão Humidade
    00:00 +3°C° 0.9 mm 1 m/s 578 mmHg 97%
    01:00 +3°C° 0.9 mm 1 m/s 578 mmHg 97%
    02:00 +3°C° 1 mm 1 m/s 578 mmHg 97%
    03:00 +3°C° 1 mm 1 m/s 578 mmHg 97%
    04:00 +2°C° 1 mm 1 m/s 577 mmHg 97%
    05:00 +2°C° 0.4 mm 1 m/s 578 mmHg 97%
    06:00 +2°C° 0.4 mm 1 m/s 578 mmHg 96%
    07:00 +2°C° 0.4 mm 1 m/s 578 mmHg 96%
    08:00 +1°C° 0.7 mm 2 m/s 578 mmHg 95%
    09:00 +1°C° 0.7 mm 2 m/s 578 mmHg 94%
    10:00 +1°C° 0.7 mm 2 m/s 578 mmHg 93%
    11:00 +1°C° 1.8 mm 2 m/s 578 mmHg 93%
    12:00 +1°C° 1.8 mm 2 m/s 578 mmHg 92%
    13:00 -1°C° 1.8 mm 2 m/s 578 mmHg 92%
    14:00 +1°C° 0.4 mm 2 m/s 578 mmHg 91%
    15:00 +2°C° 0.4 mm 2 m/s 578 mmHg 91%
    16:00 +3°C° 0.4 mm 1 m/s 578 mmHg 90%
    17:00 +3°C° 0 mm 1 m/s 579 mmHg 89%
    18:00 +3°C° 0 mm 1 m/s 579 mmHg 87%
    19:00 +3°C° 0 mm 1 m/s 579 mmHg 86%
    20:00 +1°C° 0 mm 2 m/s 579 mmHg 85%
    21:00 -2°C° 0 mm 2 m/s 579 mmHg 84%
    22:00 -3°C° 0 mm 2 m/s 579 mmHg 83%
    23:00 -3°C° 0 mm 2 m/s 579 mmHg 82%
    Mostrar mais